Home   Weather   Escuintla   Past weeks

Flag for Guatemala Past Weather in Escuintla, Guatemala — Yesterday and Last 2 Weeks

Now
61 °F

Clear.


Feels Like: 61 °F
Forecast: 67 / 94 °F
Wind: 12 mph from Northeast

Location: Guatemala Aeropuertola Aurora

Current Time: Jan 23, 2017 at 4:54:25 am

Latest Report: Jan 23, 2017 at 4:00 am


Visibility: 10 mi

Pressure: 30.21 "Hg

Humidity: 68%

Dew Point: 50 °F

Location of EscuintlaLocation

Past Weather in Escuintla — Graph

°F

Escuintla Temperature Yesterday

Maximum temperature yesterday: 73 °F (at 1:00 pm)
Minimum temperature yesterday: 59 °F (at 7:00 am)
Average temperature yesterday: 65 °F

High & Low Weather Summary for the Past Weeks

 TemperatureHumidityPressure
High79 °F (Jan 17, 2:00 pm)100% (Jan 21, 8:00 am)30.51 "Hg (Jan 21, 8:00 am)
Low52 °F (Jan 9, 3:00 am)44% (Jan 13, 2:00 pm)30.12 "Hg (Jan 13, 8:00 pm)
Average62 °F74%30.31 "Hg
* Reported Jan 8 3:00 am — Jan 23 3:00 am, Escuintla, Weather by CustomWeather, © 2017

Note: Actual official high and low records may vary slightly from our data, if they occured in-between our weather recording intervals... More about our weather records

Advertising

Escuintla Weather History for the Previous 24 Hours

Scroll right to see more
 ConditionsComfort  
Time TempWeatherWind HumidityBarometerVisibility
3:00 am
Mon, Jan 23
63 °FClear.9 mph64%30.21 "Hg10 mi
2:00 am64 °FClear.18 mph64%30.21 "Hg10 mi
1:00 am64 °FClear.16 mph64%30.21 "Hg10 mi
12:00 am63 °FPassing clouds.14 mph77%30.24 "HgN/A
11:00 pm
Sun, Jan 22
61 °FPassing clouds.7 mph88%30.24 "Hg5 mi
10:00 pm61 °FPassing clouds.No wind88%30.24 "Hg5 mi
9:00 pm63 °FPassing clouds.5 mph88%30.24 "Hg5 mi
8:00 pm64 °FPassing clouds.5 mph88%30.21 "Hg5 mi
7:00 pm64 °FPassing clouds.5 mph83%30.21 "HgN/A
6:00 pm68 °FPassing clouds.9 mph78%30.18 "HgN/A
5:00 pm70 °FSunny.16 mph73%30.15 "Hg10 mi
4:00 pm72 °FSunny.16 mph69%30.15 "Hg10 mi
3:00 pm73 °FSunny.16 mph61%30.15 "Hg10 mi
2:00 pm73 °FPassing clouds.16 mph61%30.18 "HgN/A
1:00 pm73 °FPassing clouds.12 mph61%30.21 "HgN/A
12:00 pm72 °FPassing clouds.14 mph65%30.24 "HgN/A
11:00 am72 °FPassing clouds.12 mph61%30.24 "HgN/A
10:00 am68 °FPassing clouds.7 mph64%30.27 "HgN/A
9:00 am64 °FScattered clouds.9 mph78%30.27 "HgN/A
8:00 am61 °FScattered clouds.9 mph88%30.24 "HgN/A
7:00 am59 °FPartly sunny.9 mph94%30.21 "HgN/A
6:00 am61 °FOvercast.9 mph88%30.21 "HgN/A
5:00 am61 °FPassing clouds.9 mph88%30.21 "HgN/A
4:00 am61 °FPartly cloudy.12 mph94%30.21 "Hg5 mi
Weather by CustomWeather, © 2017

See weather overviewHow to use our weather pages